| time (UTC) | temp F | wind direction | speed MPH | gust MPH | rain 1hr in | rain 24hr in | rain mn in | humidity % | barometer mb |
| 20260502181311 | 60 | 90 | 0.0 | 0.0 | 0.00 | 0.00 | 0.00 | 39 | 1100.0 |
| 20260502180313 | 60 | 90 | 0.0 | 0.0 | 0.00 | 0.00 | 0.00 | 39 | 1100.0 |
| 20260502170310 | 70 | 247 | 3.0 | 6.0 | 0.00 | 0.00 | 0.00 | 31 | 1100.0 |
| 20260502164311 | 72 | 202 | 3.0 | 8.0 | 0.00 | 0.00 | 0.00 | 29 | 1100.0 |
| 20260502163310 | 76 | 180 | 3.0 | 5.0 | 0.00 | 0.00 | 0.00 | 27 | 1100.0 |
| 20260502162309 | 76 | 180 | 3.0 | 5.0 | 0.00 | 0.00 | 0.00 | 27 | 1100.0 |
| 20260502161309 | 78 | 360 | 2.0 | 2.0 | 0.00 | 0.00 | 0.00 | 25 | 1100.0 |
| 20260502160309 | 78 | 360 | 2.0 | 2.0 | 0.00 | 0.00 | 0.00 | 25 | 1100.0 |
| 20260502152314 | 81 | 202 | 4.0 | 11.0 | 0.00 | 0.00 | 0.00 | 24 | 1100.0 |
| 20260502151313 | 81 | 225 | 4.0 | 5.0 | 0.00 | 0.00 | 0.00 | 24 | 1100.0 |
| 20260502150314 | 81 | 225 | 4.0 | 5.0 | 0.00 | 0.00 | 0.00 | 24 | 1100.0 |
| 20260502130311 | 79 | 360 | 3.0 | 5.0 | 0.00 | 0.00 | 0.00 | 24 | 1100.0 |
| 20260502123311 | 78 | 202 | 5.0 | 11.0 | 0.00 | 0.00 | 0.00 | 27 | 1100.0 |
| 20260502122312 | 78 | 202 | 5.0 | 11.0 | 0.00 | 0.00 | 0.00 | 27 | 1100.0 |
| 20260502121311 | 78 | 202 | 4.0 | 10.0 | 0.00 | 0.00 | 0.00 | 29 | 1100.0 |
| 20260502120312 | 78 | 202 | 4.0 | 10.0 | 0.00 | 0.00 | 0.00 | 29 | 1100.0 |
| 20260502115311 | 77 | 360 | 3.0 | 9.0 | 0.00 | 0.00 | 0.00 | 27 | 1100.0 |
| 20260502114311 | 77 | 360 | 3.0 | 9.0 | 0.00 | 0.00 | 0.00 | 27 | 1100.0 |
| 20260502113310 | 76 | 225 | 4.0 | 9.0 | 0.00 | 0.00 | 0.00 | 29 | 1100.0 |
| 20260502112311 | 76 | 225 | 4.0 | 9.0 | 0.00 | 0.00 | 0.00 | 29 | 1100.0 |
| 20260502111312 | 74 | 202 | 3.0 | 6.0 | 0.00 | 0.00 | 0.00 | 32 | 1100.0 |
| 20260502110311 | 74 | 202 | 3.0 | 6.0 | 0.00 | 0.00 | 0.00 | 32 | 1100.0 |
| 20260502105311 | 74 | 67 | 1.0 | 4.0 | 0.00 | 0.00 | 0.00 | 28 | 1100.0 |
| 20260502104310 | 74 | 67 | 1.0 | 4.0 | 0.00 | 0.00 | 0.00 | 28 | 1100.0 |
| 20260502103310 | 72 | 45 | 2.0 | 1.0 | 0.00 | 0.00 | 0.00 | 31 | 1100.0 |
| 20260502102309 | 72 | 45 | 2.0 | 1.0 | 0.00 | 0.00 | 0.00 | 31 | 1100.0 |
| 20260502101314 | 72 | 360 | 3.0 | 4.0 | 0.00 | 0.00 | 0.00 | 29 | 1100.0 |
| 20260502100314 | 72 | 360 | 3.0 | 4.0 | 0.00 | 0.00 | 0.00 | 29 | 1100.0 |
| 20260502091313 | 68 | 45 | 3.0 | 5.0 | 0.00 | 0.00 | 0.00 | 33 | 1100.0 |
| 20260502090314 | 68 | 45 | 3.0 | 5.0 | 0.00 | 0.00 | 0.00 | 33 | 1100.0 |
| 20260502071312 | 54 | 180 | 2.0 | 7.0 | 0.00 | 0.00 | 0.00 | 60 | 1100.0 |
| 20260502070313 | 54 | 180 | 2.0 | 7.0 | 0.00 | 0.00 | 0.00 | 60 | 1100.0 |
| 20260502065311 | 52 | 202 | 2.0 | 5.0 | 0.00 | 0.00 | 0.00 | 65 | 1100.0 |
| 20260502064311 | 52 | 202 | 2.0 | 5.0 | 0.00 | 0.00 | 0.00 | 65 | 1100.0 |
| 20260502063311 | 49 | 157 | 1.0 | 3.0 | 0.00 | 0.00 | 0.00 | 77 | 1100.0 |
| 20260502062312 | 49 | 157 | 1.0 | 3.0 | 0.00 | 0.00 | 0.00 | 77 | 1100.0 |
| 20260502061312 | 45 | 202 | 0.0 | 2.0 | 0.00 | 0.00 | 0.00 | 86 | 1100.0 |
| 20260502060311 | 45 | 202 | 0.0 | 2.0 | 0.00 | 0.00 | 0.00 | 86 | 1100.0 |
| 20260502055310 | 43 | 157 | 0.0 | 0.0 | 0.00 | 0.00 | 0.00 | 88 | 1100.0 |
| 20260502054311 | 43 | 157 | 0.0 | 0.0 | 0.00 | 0.00 | 0.00 | 88 | 1100.0 |
| 20260502053310 | 40 | 67 | 0.0 | 0.0 | 0.00 | 0.00 | 0.00 | 88 | 1100.0 |
| 20260502052311 | 40 | 67 | 0.0 | 0.0 | 0.00 | 0.00 | 0.00 | 88 | 1100.0 |
| 20260502051310 | 38 | 45 | 0.0 | 0.0 | 0.00 | 0.00 | 0.00 | 88 | 1100.0 |
| 20260502050309 | 38 | 45 | 0.0 | 0.0 | 0.00 | 0.00 | 0.00 | 88 | 1100.0 |
| 20260502045309 | 36 | 45 | 1.0 | 2.0 | 0.00 | 0.00 | 0.00 | 88 | 1100.0 |
| 20260502044309 | 36 | 45 | 1.0 | 2.0 | 0.00 | 0.00 | 0.00 | 88 | 1100.0 |
| 20260502043309 | 35 | 45 | 1.0 | 1.0 | 0.00 | 0.00 | 0.00 | 87 | 1100.0 |
| 20260502042314 | 35 | 45 | 1.0 | 1.0 | 0.00 | 0.00 | 0.00 | 87 | 1100.0 |
| 20260502041314 | 34 | 22 | 2.0 | 2.0 | 0.00 | 0.00 | 0.00 | 86 | 1100.0 |
| 20260502040314 | 34 | 22 | 2.0 | 2.0 | 0.00 | 0.00 | 0.00 | 86 | 1100.0 |
| 20260502035315 | 35 | 45 | 1.0 | 1.0 | 0.00 | 0.00 | 0.00 | 86 | 1100.0 |
| 20260502034313 | 35 | 45 | 1.0 | 1.0 | 0.00 | 0.00 | 0.00 | 86 | 1100.0 |
| 20260502033314 | 35 | 22 | 2.0 | 2.0 | 0.00 | 0.00 | 0.00 | 86 | 1100.0 |
| 20260502032314 | 35 | 22 | 2.0 | 2.0 | 0.00 | 0.00 | 0.00 | 86 | 1100.0 |
| 20260502031313 | 35 | 45 | 1.0 | 2.0 | 0.00 | 0.00 | 0.00 | 86 | 1100.0 |
| 20260502030313 | 35 | 45 | 1.0 | 2.0 | 0.00 | 0.00 | 0.00 | 86 | 1100.0 |
| 20260502025313 | 35 | 45 | 2.0 | 2.0 | 0.00 | 0.00 | 0.00 | 85 | 1100.0 |
| 20260502024312 | 35 | 45 | 2.0 | 2.0 | 0.00 | 0.00 | 0.00 | 85 | 1100.0 |
| 20260502023313 | 36 | 67 | 2.0 | 1.0 | 0.00 | 0.00 | 0.00 | 85 | 1100.0 |
| 20260502022312 | 36 | 67 | 2.0 | 1.0 | 0.00 | 0.00 | 0.00 | 85 | 1100.0 |
| 20260502021313 | 35 | 67 | 2.0 | 3.0 | 0.00 | 0.00 | 0.00 | 86 | 1100.0 |
| 20260502020313 | 35 | 67 | 2.0 | 3.0 | 0.00 | 0.00 | 0.00 | 86 | 1100.0 |
| 20260502015313 | 35 | 67 | 2.0 | 1.0 | 0.00 | 0.00 | 0.00 | 84 | 1100.0 |
| 20260502014312 | 35 | 67 | 2.0 | 1.0 | 0.00 | 0.00 | 0.00 | 84 | 1100.0 |
| 20260502013311 | 35 | 22 | 2.0 | 1.0 | 0.00 | 0.00 | 0.00 | 84 | 1100.0 |
| 20260502012312 | 35 | 22 | 2.0 | 1.0 | 0.00 | 0.00 | 0.00 | 84 | 1100.0 |
| 20260502011311 | 35 | 45 | 1.0 | 2.0 | 0.00 | 0.00 | 0.00 | 84 | 1100.0 |
| 20260502010312 | 35 | 45 | 1.0 | 2.0 | 0.00 | 0.00 | 0.00 | 84 | 1100.0 |
| 20260502005311 | 36 | 45 | 1.0 | 0.0 | 0.00 | 0.00 | 0.00 | 84 | 1100.0 |
| 20260502004311 | 36 | 45 | 1.0 | 0.0 | 0.00 | 0.00 | 0.00 | 84 | 1100.0 |
| 20260502003311 | 36 | 22 | 2.0 | 2.0 | 0.00 | 0.00 | 0.00 | 84 | 1100.0 |
| 20260502002311 | 36 | 22 | 2.0 | 2.0 | 0.00 | 0.00 | 0.00 | 84 | 1100.0 |
| 20260502001312 | 36 | 112 | 1.0 | 2.0 | 0.00 | 0.00 | 0.00 | 83 | 1100.0 |
| 20260502000311 | 36 | 112 | 1.0 | 2.0 | 0.00 | 0.00 | 0.00 | 83 | 1100.0 |
| 20260501235312 | 36 | 337 | 1.0 | 1.0 | 0.00 | 0.00 | 0.00 | 82 | 1100.0 |
| 20260501234310 | 36 | 337 | 1.0 | 1.0 | 0.00 | 0.00 | 0.00 | 82 | 1100.0 |
| 20260501233311 | 36 | 45 | 1.0 | 2.0 | 0.00 | 0.00 | 0.00 | 81 | 1100.0 |
| 20260501232310 | 36 | 45 | 1.0 | 2.0 | 0.00 | 0.00 | 0.00 | 81 | 1100.0 |
| 20260501231309 | 36 | 22 | 1.0 | 2.0 | 0.00 | 0.00 | 0.00 | 81 | 1100.0 |
| 20260501230309 | 36 | 22 | 1.0 | 2.0 | 0.00 | 0.00 | 0.00 | 81 | 1100.0 |
| 20260501225309 | 37 | 45 | 2.0 | 2.0 | 0.00 | 0.00 | 0.00 | 80 | 1100.0 |
| 20260501224315 | 37 | 45 | 2.0 | 2.0 | 0.00 | 0.00 | 0.00 | 80 | 1100.0 |
| 20260501223314 | 37 | 22 | 2.0 | 2.0 | 0.00 | 0.00 | 0.00 | 80 | 1100.0 |
| 20260501222314 | 37 | 22 | 2.0 | 2.0 | 0.00 | 0.00 | 0.00 | 80 | 1100.0 |
| 20260501221314 | 38 | 67 | 1.0 | 2.0 | 0.00 | 0.00 | 0.00 | 78 | 1100.0 |
| 20260501220314 | 38 | 67 | 1.0 | 2.0 | 0.00 | 0.00 | 0.00 | 78 | 1100.0 |
| 20260501215315 | 38 | 45 | 1.0 | 2.0 | 0.00 | 0.00 | 0.00 | 78 | 1100.0 |
| 20260501214314 | 38 | 45 | 1.0 | 2.0 | 0.00 | 0.00 | 0.00 | 78 | 1100.0 |
| 20260501213313 | 39 | 360 | 1.0 | 1.0 | 0.00 | 0.00 | 0.00 | 76 | 1100.0 |
| 20260501212313 | 39 | 360 | 1.0 | 1.0 | 0.00 | 0.00 | 0.00 | 76 | 1100.0 |
| 20260501211313 | 39 | 22 | 1.0 | 0.0 | 0.00 | 0.00 | 0.00 | 76 | 1100.0 |
| 20260501210314 | 39 | 22 | 1.0 | 0.0 | 0.00 | 0.00 | 0.00 | 76 | 1100.0 |
| 20260501205314 | 40 | 67 | 1.0 | 1.0 | 0.00 | 0.00 | 0.00 | 77 | 1100.0 |
| 20260501204312 | 40 | 67 | 1.0 | 1.0 | 0.00 | 0.00 | 0.00 | 77 | 1100.0 |
| 20260501203314 | 41 | 45 | 0.0 | 0.0 | 0.00 | 0.00 | 0.00 | 73 | 1100.0 |
| 20260501202312 | 41 | 45 | 0.0 | 0.0 | 0.00 | 0.00 | 0.00 | 73 | 1100.0 |
| 20260501201312 | 42 | 67 | 1.0 | 0.0 | 0.00 | 0.00 | 0.00 | 74 | 1100.0 |
| 20260501200312 | 42 | 67 | 1.0 | 0.0 | 0.00 | 0.00 | 0.00 | 74 | 1100.0 |
| 20260501195311 | 42 | 67 | 1.0 | 1.0 | 0.00 | 0.00 | 0.00 | 72 | 1100.0 |
| 20260501194312 | 42 | 67 | 1.0 | 1.0 | 0.00 | 0.00 | 0.00 | 72 | 1100.0 |
| 20260501193312 | 44 | 45 | 1.0 | 2.0 | 0.00 | 0.00 | 0.00 | 70 | 1100.0 |
| 20260501192311 | 44 | 45 | 1.0 | 2.0 | 0.00 | 0.00 | 0.00 | 70 | 1100.0 |
| 20260501191312 | 45 | 67 | 0.0 | 0.0 | 0.00 | 0.00 | 0.00 | 66 | 1100.0 |
| 20260501190311 | 45 | 67 | 0.0 | 0.0 | 0.00 | 0.00 | 0.00 | 66 | 1100.0 |
| 20260501185312 | 47 | 67 | 1.0 | 0.0 | 0.00 | 0.00 | 0.00 | 64 | 1100.0 |
| 20260501184310 | 47 | 67 | 1.0 | 0.0 | 0.00 | 0.00 | 0.00 | 64 | 1100.0 |
| 20260501183311 | 52 | 157 | 0.0 | 0.0 | 0.00 | 0.00 | 0.00 | 56 | 1100.0 |
| 20260501182310 | 52 | 157 | 0.0 | 0.0 | 0.00 | 0.00 | 0.00 | 56 | 1100.0 |